Satellite-Ground Cal/Val Region Overpasses Predictions

Prediction of Satellite NPP Overpassing Cal/Val Region: PacNW

Region Location: (Latitude: 10.00, Longitude: 139.50) to (Latitude: 22.70, Longitude: 165.60).

Table of predicted overpasses for the next 14.0 days since TLE Epoch: 12/11/2021
Interval Starting Time Starting Location Ending Time Ending Location
1 12/11/2021 15:50:35 ( 22.64, 147.41) 12/11/2021 15:54:10 ( 10.02, 144.41)
2 12/12/2021 02:59:39 ( 10.01, 154.95) 12/12/2021 03:03:15 ( 22.69, 151.94)
3 12/12/2021 15:31:32 ( 22.67, 152.18) 12/12/2021 15:35:07 ( 10.05, 149.18)
4 12/13/2021 02:40:37 ( 10.04, 159.71) 12/13/2021 02:44:12 ( 22.67, 156.71)
5 12/13/2021 15:12:28 ( 22.70, 156.95) 12/13/2021 15:16:04 ( 10.01, 153.93)
6 12/14/2021 02:21:33 ( 10.02, 164.48) 12/14/2021 02:25:09 ( 22.70, 161.46)
7 12/14/2021 14:53:26 ( 22.66, 161.70) 12/14/2021 14:57:01 ( 10.04, 158.70)
8 12/15/2021 03:44:00 ( 10.00, 143.87) 12/15/2021 03:47:36 ( 22.68, 140.85)
9 12/15/2021 14:35:23 ( 19.17, 165.60) 12/15/2021 14:37:59 ( 10.01, 163.45)
10 12/15/2021 16:15:53 ( 22.68, 141.09) 12/15/2021 16:17:44 ( 16.17, 139.51)
11 12/16/2021 03:24:57 ( 10.03, 148.62) 12/16/2021 03:28:32 ( 22.66, 145.62)
12 12/16/2021 15:56:50 ( 22.65, 145.84) 12/16/2021 16:00:25 ( 10.02, 142.84)
13 12/17/2021 03:05:54 ( 10.01, 153.39) 12/17/2021 03:09:30 ( 22.69, 150.37)
14 12/17/2021 15:37:47 ( 22.67, 150.61) 12/17/2021 15:41:22 ( 10.05, 147.61)
15 12/18/2021 02:46:51 ( 10.04, 158.14) 12/18/2021 02:50:26 ( 22.67, 155.14)
16 12/18/2021 15:18:43 ( 22.69, 155.38) 12/18/2021 15:22:19 ( 10.01, 152.36)
17 12/19/2021 02:27:48 ( 10.02, 162.91) 12/19/2021 02:31:23 ( 22.64, 159.91)
18 12/19/2021 14:59:41 ( 22.66, 160.13) 12/19/2021 15:03:16 ( 10.04, 157.13)
19 12/20/2021 02:11:15 ( 18.87, 165.60) 12/20/2021 02:12:20 ( 22.68, 164.66)
20 12/20/2021 03:50:14 ( 10.01, 142.30) 12/20/2021 03:53:35 ( 21.81, 139.50)
21 12/20/2021 14:40:37 ( 22.68, 164.89) 12/20/2021 14:44:13 ( 10.00, 161.88)
22 12/20/2021 16:22:07 ( 22.67, 139.52) 12/20/2021 16:22:08 ( 22.61, 139.50)
23 12/21/2021 03:31:12 ( 10.04, 147.05) 12/21/2021 03:34:47 ( 22.67, 144.05)
24 12/21/2021 16:03:04 ( 22.70, 144.28) 12/21/2021 16:06:40 ( 10.02, 141.27)
25 12/22/2021 03:12:09 ( 10.02, 151.81) 12/22/2021 03:15:44 ( 22.64, 148.82)
26 12/22/2021 15:44:01 ( 22.66, 149.04) 12/22/2021 15:47:36 ( 10.04, 146.04)
27 12/23/2021 02:53:06 ( 10.06, 156.57) 12/23/2021 02:56:41 ( 22.68, 153.57)
28 12/23/2021 15:24:58 ( 22.68, 153.80) 12/23/2021 15:28:34 ( 10.00, 150.79)
29 12/24/2021 02:34:03 ( 10.04, 161.33) 12/24/2021 02:37:38 ( 22.66, 158.33)
30 12/24/2021 15:05:55 ( 22.64, 158.56) 12/24/2021 15:09:30 ( 10.02, 155.56)
